FW7266 Weather Reports


time (UTC)temp
F
wind
direction
speed
knots
gust
knots
rain 1hr
in
rain 24hr
in
rain mn
in
humidity
%
barometer
mb
20240418171539 41 275 9.6 18.2 0.00 0.00 0.00 61 1017.3
20240418170035 42 289 6.1 18.2 0.00 0.00 0.00 61 1017.1
20240418164532 42 258 8.7 19.1 0.00 0.00 0.00 61 1017.2
20240418163043 42 289 7.8 18.2 0.00 0.00 0.00 64 1017.4
20240418161540 42 274 8.7 20.0 0.00 0.00 0.00 62 1017.3
20240418160034 42 284 6.1 18.2 0.00 0.00 0.00 62 1017.4
20240418154541 41 263 7.0 18.2 0.00 0.00 0.00 64 1017.2
20240418153032 41 239 11.3 20.0 0.00 0.00 0.00 62 1017.1
20240418151533 42 297 7.8 20.9 0.00 0.00 0.00 64 1017.4
20240418150033 41 296 9.6 16.5 0.00 0.00 0.00 66 1017.3
20240418144537 41 224 7.0 16.5 0.00 0.00 0.00 65 1017.1
20240418143033 41 245 8.7 17.4 0.00 0.00 0.00 65 1017.1
20240418141536 41 288 7.0 20.0 0.00 0.00 0.00 68 1017.1
20240418140037 40 279 5.2 15.6 0.00 0.00 0.00 70 1017.2
20240418134535 40 269 6.1 13.9 0.00 0.00 0.00 73 1017.2
20240418133038 40 296 7.0 13.0 0.00 0.00 0.00 73 1017.4
20240418131538 39 277 5.2 12.2 0.00 0.00 0.00 76 1017.2
20240418130037 38 245 3.5 10.4 0.00 0.00 0.00 80 1017.0
20240418124538 38 240 3.5 9.6 0.00 0.00 0.00 82 1017.3
20240418123036 37 252 4.3 9.6 0.00 0.00 0.00 82 1017.2
20240418121536 37 243 2.6 9.6 0.00 0.00 0.00 82 1016.8
20240418120044 37 242 3.5 8.7 0.00 0.00 0.00 82 1016.8
20240418114546 37 261 4.3 7.8 0.00 0.00 0.00 80 1016.9
20240418113039 38 240 3.5 7.8 0.00 0.00 0.00 80 1016.6
20240418111538 38 235 2.6 6.1 0.00 0.00 0.00 78 1016.3
20240418110034 38 242 2.6 7.0 0.00 0.00 0.00 77 1016.5
20240418104534 39 252 0.9 4.3 0.00 0.00 0.00 76 1015.8
20240418103033 40 255 2.6 7.8 0.00 0.00 0.00 73 1015.7
20240418101545 40 298 1.7 8.7 0.00 0.00 0.00 72 1015.5
20240418100038 41 267 5.2 11.3 0.00 0.00 0.00 71 1015.7
20240418094542 41 277 3.5 9.6 0.00 0.02 0.00 73 1015.4
20240418093030 41 266 3.5 7.8 0.00 0.02 0.00 77 1016.1
20240418091537 41 244 2.6 7.8 0.00 0.02 0.00 80 1015.8
20240418090046 41 280 3.5 7.0 0.00 0.02 0.00 80 1015.7
20240418084537 42 254 1.7 5.2 0.00 0.07 0.00 80 1015.2
20240418083036 42 263 0.9 7.0 0.00 0.07 0.00 78 1014.9
20240418081535 42 266 1.7 8.7 0.00 0.07 0.00 79 1015.4
20240418080035 43 265 1.7 6.1 0.00 0.07 0.00 80 1015.0
20240418074541 43 243 1.7 5.2 0.00 0.07 0.00 81 1014.5
20240418073037 43 0 2.6 6.1 0.00 0.07 0.00 81 1014.9
20240418071550 43 269 1.7 5.2 0.00 0.07 0.00 83 1014.8
20240418070050 43 274 0.9 3.5 0.00 0.07 0.00 83 1014.8
20240418064540 44 298 0.0 2.6 0.00 0.07 0.00 82 1014.3
20240418063038 44 298 0.0 6.1 0.00 0.07 0.00 81 1014.1
20240418061541 44 297 1.7 6.1 0.00 0.07 0.00 82 1014.3
20240418060101 44 303 1.7 6.1 0.00 0.07 0.00 84 1014.7
20240418054531 44 281 0.9 5.2 0.00 0.07 0.00 85 1014.2
20240418053042 45 267 1.7 6.1 0.00 0.07 0.00 84 1014.3
20240418051541 44 0 1.7 7.0 0.00 0.07 0.00 86 1014.1
20240418050058 42 281 0.0 1.7 0.00 0.07 0.00 90 1014.1
20240418044536 42 0 0.0 0.0 0.00 0.07 0.07 89 1013.9
20240418043042 43 0 0.0 0.0 0.00 0.07 0.07 87 1013.5
20240418041539 43 0 0.0 0.0 0.00 0.07 0.07 87 1013.7
20240418040043 43 0 0.0 3.5 0.00 0.07 0.07 87 1013.7
20240418034536 42 280 0.9 2.6 0.00 0.07 0.07 89 1014.0
20240418033037 42 280 0.9 1.7 0.00 0.07 0.07 87 1014.2
20240418031545 44 0 0.0 1.7 0.00 0.07 0.07 83 1013.8
20240418030035 44 280 1.7 5.2 0.00 0.07 0.07 82 1013.9
20240418024538 45 0 0.0 0.0 0.00 0.07 0.07 78 1013.4
20240418023044 46 0 0.0 1.7 0.00 0.07 0.07 77 1013.7
20240418021543 47 297 1.7 6.1 0.00 0.07 0.07 75 1013.8
20240418020037 48 313 0.9 4.3 0.00 0.07 0.07 73 1013.5
20240418014540 48 331 3.5 7.8 0.00 0.09 0.07 73 1013.1
20240418013042 49 300 0.9 6.1 0.00 0.09 0.07 72 1013.1
20240418011539 49 303 2.6 8.7 0.00 0.09 0.07 72 1012.8
20240418010033 50 298 5.2 11.3 0.00 0.09 0.07 72 1012.6
20240418004534 50 288 4.3 10.4 0.00 0.09 0.07 71 1011.9
20240418003038 51 307 5.2 12.2 0.00 0.09 0.07 70 1011.7
20240418001539 50 293 5.2 15.6 0.00 0.09 0.07 70 1011.8
20240418000037 51 309 7.0 11.3 0.00 0.09 0.07 69 1011.6
20240417234530 52 265 5.2 13.0 0.00 0.09 0.07 70 1011.5
20240417233036 52 305 4.3 13.9 0.00 0.09 0.07 69 1011.3
20240417231535 52 336 6.1 17.4 0.00 0.09 0.07 69 1011.3
20240417230033 51 316 8.7 22.6 0.00 0.09 0.07 71 1011.1
20240417224543 51 317 6.1 17.4 0.00 0.09 0.07 73 1011.0
20240417223037 51 306 7.0 16.5 0.00 0.09 0.07 73 1010.8
20240417221536 51 292 9.6 16.5 0.00 0.09 0.07 75 1010.3
20240417220041 51 294 9.6 24.3 0.00 0.09 0.07 74 1010.2
20240417214534 51 301 7.8 19.1 0.00 0.09 0.07 77 1010.1
20240417213041 51 248 9.6 20.9 0.00 0.09 0.07 77 1009.4
20240417211534 51 294 7.0 20.0 0.00 0.09 0.07 75 1009.2
20240417210043 50 320 7.0 22.6 0.00 0.09 0.07 77 1009.0
20240417204536 49 317 8.7 19.1 0.00 0.39 0.07 78 1008.9
20240417203043 50 325 7.0 20.9 0.00 0.39 0.07 76 1008.4
20240417201542 50 323 8.7 20.0 0.00 0.39 0.07 75 1008.4
20240417200037 50 320 9.6 19.1 0.00 0.39 0.07 76 1008.0
20240417194536 50 327 7.8 18.2 0.00 0.63 0.07 75 1007.9
20240417193039 50 321 7.0 16.5 0.00 0.63 0.07 74 1007.6
20240417191545 49 321 7.8 18.2 0.00 0.63 0.07 76 1007.5
20240417190036 49 333 8.7 19.1 0.00 0.63 0.07 76 1007.3
20240417184541 48 277 8.7 17.4 0.00 0.79 0.07 78 1006.9
20240417183040 47 275 5.2 20.0 0.00 0.79 0.07 82 1006.9
20240417181543 46 286 11.3 20.0 0.00 0.79 0.07 82 1006.7
20240417180036 46 315 12.2 20.0 0.00 0.79 0.07 82 1006.7
20240417174548 46 324 12.2 19.1 0.00 1.11 0.07 82 1006.6
20240417173036 46 326 5.2 19.1 0.00 1.11 0.07 83 1006.6